Location: Riddle Hill
(39.7867°N, 89.7645°W)
Time: 21:17:40
(UTC+00:00)

Aureole 3 Rocket - Pass Details

Date: 29 October 2020
Orbit: 399 x 1739 km, 82.5° (Epoch: 30 November)

Event Time Altitude Azimuth Distance (km) Brightness Sun altitude
Rises 23:23:37 0° 169° (S) 2,570 6.3 -5.2°
Reaches altitude 10° 23:25:31 10° 162° (SSE) 1,803 5.4 -5.6°
Maximum altitude 23:29:15 45° 89° (E) 895 3.5 -6.3°
Drops below altitude 10° 23:34:20 10° 18° (NNE) 2,458 5.8 -7.2°
Sets 23:37:17 0° 13° (NNE) 3,635 6.7 -7.8°
